User: anonymous   Login
Location: Caltech
(34.1382°N, 118.1253°W)
Time: 04:52:19
(UTC-07:00)
Language:

ASTRO E2 - Orbit

View from above orbital plane
View from above orbital plane
View from above satellite
View from above satellite

Ground track
Ground track

The orbit data is extracted from the following two-line orbital elements,

1 28773U 05025A   16148.51007890  .00001301  00000-0  63929-4 0  9997
2 28773  31.3832 275.4980 0004695  79.7864 280.3311 15.14757100598808
Epoch (UTC): 27 May 2016 12:14:30
Eccentricity: 0.0004695
inclination: 31.3832°
perigee height: 518 km
apogee height: 525 km
right ascension of ascending node: 275.4980°
argument of perigee: 79.7864°
revolutions per day: 15.14757100
mean anomaly at epoch: 280.3311°
orbit number at epoch: 59880

The dashed part of the orbit path shows where the satellite is in the earth's shadow,  

DLR